Location: PSU-Greenbush Astrophysical Observatory
(37.5140°N, 94.9880°W)
Time: 00:16:04
(UTC-06:00)

Transit 2A - Visible Passes

Search period start: 18 January 2020 00:00
Search period end: 28 January 2020 00:00
Orbit: 601 x 957 km, 66.7° (Epoch: 17 January)

Date Brightness Start Highest point End Pass type
(mag) Time Alt. Az. Time Alt. Az. Time Alt. Az.
18 Jan 7.6 06:08:38 10° N 06:12:47 29° NE 06:17:16 10° ESE visible
19 Jan 8.1 05:34:58 10° N 05:38:32 20° NE 05:42:17 10° E visible
20 Jan 8.4 05:01:39 10° NNE 05:04:11 14° NE 05:06:50 10° E visible
20 Jan 5.9 06:42:55 10° NNW 06:47:45 76° WSW 06:53:06 10° SSE visible
21 Jan 6.1 06:09:03 11° NNW 06:13:39 72° ENE 06:18:58 10° SE visible
22 Jan 6.8 05:36:16 19° N 05:39:29 47° ENE 05:44:36 10° SE visible
23 Jan 7.4 05:03:34 25° NNE 05:05:17 32° NE 05:09:58 10° ESE visible
23 Jan 6.9 06:44:05 10° NW 06:48:21 29° WSW 06:52:59 10° S visible
23 Jan 7.8 19:39:47 10° S 19:40:34 14° S 19:40:34 14° S visible
24 Jan 7.9 04:30:55 22° NE 04:31:02 22° NE 04:35:03 10° ESE visible
24 Jan 6.3 06:11:27 22° NW 06:14:19 45° WSW 06:19:27 10° S visible
24 Jan 7.2 19:06:25 10° SSE 19:08:20 18° SE 19:08:20 18° SE visible
25 Jan 8.7 03:58:23 14° ENE 03:58:23 14° ENE 03:59:44 10° E visible
25 Jan 5.8 05:38:55 48° NW 05:40:14 69° WSW 05:45:38 10° SSE visible
25 Jan 7.3 18:33:41 10° SE 18:35:55 14° ESE 18:36:04 14° ESE visible
25 Jan 7.4 20:14:19 10° SW 20:16:38 28° WSW 20:16:38 28° WSW visible
26 Jan 6.0 05:06:29 74° ESE 05:06:29 74° ESE 05:11:33 10° SSE visible
26 Jan 7.8 06:47:13 10° W 06:48:47 11° WSW 06:50:25 10° WSW visible
26 Jan 5.6 19:40:01 10° SSW 19:44:20 77° W 19:44:20 77° W visible
27 Jan 7.5 04:34:08 32° ESE 04:34:08 32° ESE 04:37:13 10° SE visible
27 Jan 7.4 06:14:41 18° WSW 06:14:50 18° WSW 06:18:25 10° SSW visible
27 Jan 5.5 19:05:57 10° SSW 19:10:22 65° ESE 19:11:59 36° NE visible
27 Jan 8.6 20:51:57 10° WNW 20:52:33 11° WNW 20:52:33 11° WNW visible
